[Iaude] MPEC D47: 2020 UV5 [a=1.24,e=0.18,i=17.5,H=22.44]
    mpec at cfa.harvard.edu 
    mpec at cfa.harvard.edu
       
    Sun Feb 18 09:10:04 EST 2024
    
    
  
M.P.E.C. 2024-D47                             Issued 2024 February 18, 14:08 UT
     The Minor Planet Electronic Circulars contain information on unusual
         minor planets, routine data on comets and natural satellites,
         and occasional editorial announcements.  They are published
    on behalf of Division F of the International Astronomical Union by the
          Minor Planet Center, Smithsonian Astrophysical Observatory,
                          Cambridge, MA 02138, U.S.A.
			  
             Prepared using the Tamkin Foundation Computer Network
                              MPC at CFA.HARVARD.EDU
            URL https://www.minorplanetcenter.net/    ISSN 1523-6714
                                    2020 UV5                                    
                           Revision to MPEC 2020-U230                           
Additional Observations:
     K20U05V KC2024 02 16.51859113 21 39.139+55 41 57.59         22.57GVED047V06
     K20U05V KC2024 02 16.52752313 21 39.013+55 42 07.88         22.30GVED047V06
     K20U05V KC2024 02 16.53310413 21 38.916+55 42 14.00         23.12GVED047V06
     K20U05V KC2024 02 17.49538713 21 38.149+56 01 26.00         22.96GVED047V06
     K20U05V KC2024 02 17.49937813 21 38.106+56 01 31.01         22.99GVED047V06
     K20U05V KC2024 02 17.50480513 21 38.034+56 01 37.09         22.89GVED047V06
     K20U05V KC2024 02 17.51023513 21 37.818+56 01 43.57         22.33GVED047V06
Observer details:
V06 Catalina Sky Survey-Kuiper.  Observer J. B. Fazekas.  Measurers T. Beuden,
    V. F. Carvajal, D. Fay, J. B. Fazekas, D. C. Fuls, A. R. Gibbs, A. D.
    Grauer, H. Groeller, J. K. Hogan, R. A. Kowalski, S. M. Larson, G. J.
    Leonard, D. Rankin, R. L. Seaman, F. C. Shelly, K. W. Wierzchos.  1.55-m
    reflector + 1K CCD.
First and last observations above in comparison with prediction:
Residuals in seconds of arc, reference and Delta-T
240216 V06 25.5- 38.0-    240217 V06 27.3- 38.1-    MPO600173   +0.02 days
Orbital elements:
2020 UV5                                                 Earth MOID = 0.0423 AU
Epoch 2024 Mar. 31.0 TT = JDT 2460400.5                 Veres                   
M 306.62133              (2000.0)            P               Q                  
n   0.71367414     Peri.  217.32875     -0.29209886     +0.93938041             
a   1.2401363      Node    36.68841     -0.78889786     -0.13052032             
e   0.1783783      Incl.   17.49014     -0.54066480     -0.31706290             
P   1.38           H   22.44          G   0.15           U   2                  
Residuals in seconds of arc
201015 F51  0.1-  0.0     201025 F51  0.0   0.0     201114 H21  0.2+  0.4-
201015 F51  0.1-  0.1+    201025 F51  0.1+  0.0     201209 F51  0.1+  0.1+
201015 F51  0.2+  0.6+    201025 F51  0.1-  0.1+    201209 F51  0.1+  0.1+
201015 F51  0.0   0.2-    201108 H21  0.7-  0.0     201209 F51  0.0   0.1-
201020 F51  0.1+  0.2-    201108 H21  0.7-  0.3+    240216 V06  0.5+  0.2+
201020 F51  0.1+  0.1-    201108 H21  1.0-  0.3+    240216 V06  0.2+  0.1+
201020 F51  0.0   0.1-    201110 H21  0.1-  0.4-    240216 V06  0.1-  0.3-
201023 F51  0.0   0.0     201110 H21  0.1+  0.3+    240217 V06  0.1-  0.2-
201023 F51  0.0   0.1-    201110 H21  0.2+  0.4+    240217 V06  0.1+  0.2+
201023 F51  0.1-  0.1+    201114 H21  0.2+  0.1-    240217 V06  0.3+  0.1-
201023 F51  0.1-  0.1+    201114 H21  0.2+  0.2+    240217 V06  0.7-  0.1+
Ephemeris:
2020 UV5                 a,e,i = 1.24, 0.18, 17                  q = 1.0189
Date    TT    R. A. (2000) Decl.     Delta      r    Elong.  Phase     V
2024 01 19    12 47 04.2 +46 37 00   0.5520  1.3304   117.3    41.1    23.4
...
2024 02 03    13 12 14.0 +51 10 44   0.4771  1.2936   120.3    41.1    23.0
...
2024 02 11    13 19 50.1 +53 50 32   0.4410  1.2727   121.2    41.5    22.8
...
2024 02 17    13 21 40.1 +55 51 26   0.4156  1.2566   121.6    42.0    22.7
2024 02 18    13 21 35.5 +56 11 18   0.4115  1.2538   121.6    42.1    22.6
2024 02 19    13 21 23.7 +56 31 01   0.4074  1.2511   121.6    42.3    22.6
...
2024 02 25    13 17 28.1 +58 24 44   0.3835  1.2346   121.6    43.1    22.5
...
2024 03 04    13 03 43.0 +60 33 42   0.3533  1.2124   121.1    44.5    22.3
...
2024 03 19    12 09 01.5 +61 49 18   0.3013  1.1705   118.7    48.3    22.0
A. U. Tomatic                (C) Copyright 2024 MPC           M.P.E.C. 2024-D47
    
    
More information about the Iaude
mailing list